Regional Weather Roundup
Issued by NWS

Home | Current Version | Previous Version | Text Only | Print | Product List | Glossary On
Versions: 1 2 3 4 5 6 7 8 9 10 11 12 13 14 15 16 17 18 19 20 21 22 23 24 25 26 27 28 29 30 31 32 33 34 35 36 37 38 39 40 41 42 43 44 45 46 47 48 49 50
000
ASUS45 KSLC 291010
RWRUT

UTAH REGIONAL WEATHER ROUNDUP
NATIONAL WEATHER SERVICE SALT LAKE CITY UT
400 AM MDT WED JUL 29 2015

UTZ001>011-023>025-291100-

NORTHERN UTAH

CITY           SKY/WX    TMP DP  RH WIND       PRES   REMARKS
BRIGHAM CITY   CLEAR     53  38  56 CALM      30.27S
HILL AFB       CLEAR     55  27  33 E18       30.28S
LOGAN          CLEAR     43  36  76 CALM      30.30S
OGDEN          CLEAR     54  28  36 S7        30.26S
PROVO AIRPORT  CLEAR     52  30  43 CALM      30.28S
SALT LAKE CITY CLEAR     58  36  43 SE6       30.25S
VERNAL         CLEAR     53  29  39 CALM      30.27R
WENDOVER       PTCLDY    57  25  28 CALM      30.27S
HEBER CITY     CLEAR     41  30  65 SE3       30.36R
WEST JORDAN    CLEAR     54  28  37 CALM      30.28S

$$

UTZ012>022-026-027-291100-

SOUTHERN/CENTRAL UTAH

CITY           SKY/WX    TMP DP  RH WIND       PRES   REMARKS
BLANDING       PTCLDY    65  27  24 NW8       30.27R
BRYCE CANYON   CLEAR     45  29  53 W6        30.39S
CEDAR CITY     CLEAR     56  26  31 S3        30.26S
DELTA          CLEAR     58  20  23 N8        30.24F
HANKSVILLE     CLEAR     61  28  29 CALM      30.18S
MILFORD        CLEAR     60  23  24 N13       30.24S
MOAB/CYNLANDS  CLEAR     64  26  23 CALM      30.15R
PRICE          CLEAR     57  19  22 NE7       30.27S
ST GEORGE      SUNNY     81  30  16 N7        30.05R
KANAB          CLEAR     66  34  30 NE7       30.23S

$$

REGIONAL REPORTS     COLORADO/ARIZONA

CITY           SKY/WX    TMP DP  RH WIND       PRES   REMARKS
CRAIG, CO      CLEAR     42  32  67 CALM      30.34R
GRAND JUNCTION PTCLDY    62  27  26 CALM      30.18R
RIFLE          CLEAR     55  33  43 E3        30.27R
MONTROSE       CLEAR     58  37  45 SE10      30.27R
CORTEZ         CLEAR     52  39  61 E7        30.22R
PAGE, AZ       PTCLDY    76  30  18 W3        30.09R
GRAND CANYON   MOCLDY    49  26  41 CALM      30.29S
KINGMAN        PTCLDY    76  39  26 CALM      30.04F
FLAGSTAFF      PTCLDY    59  49  69 SW7       30.32F

$$

REGIONAL REPORTS    NEVADA/IDAHO/WYOMING

CITY           SKY/WX    TMP DP  RH WIND       PRES   REMARKS
LAS VEGAS, NV  PTCLDY    84  30  14 SW8       29.88S
ELY            CLEAR     44  22  41 S9        30.34S
ELKO           CLEAR     47  31  53 W3        30.27R
POCATELLO, ID  CLEAR     44  38  79 CALM      30.31S
BURLEY         CLEAR     45  39  79 CALM      30.28R
EVANSTON, WY   PTCLDY    46  25  43 CALM      30.41S
ROCK SPRINGS   CLEAR     50  25  37 E5        30.39R
KEMMERER       CLEAR     37  30  75 N10       30.42S WCI  30

$$


USA.gov is the U.S. government's official web portal to all federal, state and local government web resources and services.